QPF
0.00 0.01 0.01 0.02 0.02 0.03 0.04 0.04 0.03 0.03 0.04 0.04 0.04 0.04 0.04 0.05 0.05 0.05 0.04 0.05 0.04 0.03 0.04 0.03 0.04 0.04 0.04 0.04 0.05 0.06 0.07 0.06 0.06 0.08 0.10 0.08 0.08 0.08 0.07 0.06 0.06 0.06 0.06
0.00 0.00 0.00 0.00 0.01 0.02 0.02 0.03 0.04 0.03 0.03 0.04 0.04 0.04 0.04 0.03 0.03 0.03 0.04 0.03 0.03 0.03 0.04 0.05 0.03 0.03 0.05 0.06 0.05 0.08 0.07 0.08 0.08 0.10 0.12 0.13 0.13 0.13 0.08 0.06 0.05 0.04 0.04
0.00 0.00 0.00 0.00 0.00 0.01 0.02 0.02 0.03 0.04 0.04 0.05 0.04 0.04 0.04 0.03 0.04 0.04 0.05 0.03 0.03 0.03 0.05 0.05 0.03 0.04 0.05 0.09 0.10 0.09 0.09 0.10 0.09 0.10 0.13 0.15 0.16 0.14 0.11 0.08 0.05 0.03 0.03
0.00 0.00 0.00 0.00 0.00 0.00 0.01 0.02 0.02 0.03 0.03 0.03 0.04 0.04 0.03 0.03 0.03 0.04 0.03 0.03 0.02 0.03 0.03 0.03 0.04 0.06 0.05 0.08 0.07 0.09 0.11 0.11 0.10 0.10 0.11 0.11 0.12 0.12 0.12 0.09 0.06 0.04 0.02
0.00 0.00 0.00 0.00 0.00 0.00 0.00 0.01 0.01 0.02 0.02 0.02 0.03 0.04 0.03 0.04 0.04 0.03 0.03 0.05 0.03 0.03 0.02 0.03 0.05 0.05 0.05 0.07 0.09 0.11 0.10 0.09 0.09 0.10 0.11 0.10 0.10 0.10 0.11 0.11 0.08 0.05 0.04
0.00 0.00 0.00 0.00 0.00 0.00 0.00 0.00 0.01 0.01 0.02 0.02 0.03 0.04 0.04 0.04 0.05 0.05 0.06 0.06 0.05 0.05 0.04 0.04 0.05 0.05 0.05 0.07 0.08 0.09 0.09 0.10 0.09 0.09 0.09 0.10 0.09 0.09 0.10 0.09 0.08 0.08 0.06
0.00 0.00 0.01 0.01 0.01 0.00 0.00 0.00 0.00 0.01 0.02 0.02 0.03 0.03 0.03 0.03 0.04 0.04 0.05 0.07 0.06 0.05 0.06 0.05 0.05 0.05 0.06 0.06 0.07 0.08 0.08 0.09 0.08 0.08 0.07 0.08 0.07 0.07 0.08 0.08 0.07 0.07 0.04
0.01 0.01 0.02 0.01 0.01 0.01 0.01 0.00 0.01 0.01 0.01 0.02 0.03 0.03 0.03 0.02 0.03 0.04 0.04 0.05 0.04 0.03 0.03 0.03 0.03 0.03 0.03 0.04 0.06 0.06 0.07 0.09 0.07 0.06 0.08 0.07 0.06 0.06 0.07 0.08 0.09 0.07 0.05
0.00 0.01 0.01 0.02 0.03 0.01 0.01 0.01 0.01 0.02 0.02 0.02 0.03 0.03 0.02 0.03 0.03 0.03 0.03 0.03 0.03 0.03 0.02 0.03 0.02 0.03 0.03 0.03 0.04 0.05 0.06 0.08 0.07 0.07 0.09 0.07 0.06 0.05 0.05 0.05 0.08 0.08 0.07
0.01 0.01 0.01 0.02 0.03 0.02 0.01 0.01 0.02 0.02 0.03 0.02 0.02 0.02 0.03 0.02 0.02 0.03 0.03 0.03 0.02 0.02 0.03 0.04 0.04 0.04 0.04 0.04 0.04 0.04 0.05 0.05 0.06 0.07 0.09 0.09 0.07 0.06 0.05 0.06 0.08 0.10 0.10
0.01 0.01 0.02 0.02 0.02 0.02 0.02 0.03 0.02 0.03 0.03 0.02 0.03 0.03 0.03 0.03 0.03 0.03 0.02 0.02 0.02 0.03 0.03 0.05 0.06 0.06 0.05 0.05 0.05 0.04 0.05 0.04 0.04 0.04 0.06 0.07 0.08 0.08 0.07 0.08 0.10 0.10 0.09
0.00 0.01 0.01 0.02 0.02 0.03 0.03 0.03 0.03 0.03 0.02 0.02 0.03 0.03 0.04 0.04 0.03 0.03 0.03 0.03 0.03 0.03 0.03 0.04 0.05 0.05 0.05 0.05 0.04 0.03 0.03 0.04 0.05 0.05 0.07 0.07 0.09 0.10 0.09 0.10 0.10 0.09 0.08
0.00 0.01 0.01 0.01 0.01 0.02 0.03 0.04 0.04 0.04 0.03 0.03 0.04 0.04 0.03 0.03 0.02 0.02 0.02 0.02 0.02 0.03 0.03 0.03 0.03 0.04 0.04 0.04 0.04 0.04 0.05 0.04 0.05 0.06 0.08 0.09 0.10 0.10 0.11 0.10 0.09 0.09 0.08
0.00 0.00 0.00 0.01 0.01 0.02 0.02 0.03 0.04 0.03 0.04 0.04 0.04 0.04 0.03 0.02 0.02 0.02 0.02 0.02 0.03 0.03 0.04 0.05 0.04 0.04 0.04 0.05 0.06 0.07 0.06 0.06 0.06 0.08 0.09 0.11 0.12 0.13 0.13 0.12 0.13 0.11 0.10
0.00 0.00 0.00 0.00 0.01 0.01 0.01 0.01 0.02 0.02 0.03 0.03 0.03 0.02 0.03 0.02 0.02 0.03 0.03 0.02 0.02 0.03 0.05 0.06 0.07 0.08 0.07 0.08 0.09 0.08 0.07 0.09 0.11 0.11 0.09 0.09 0.11 0.11 0.11 0.09 0.11 0.11 0.10
0.01 0.00 0.00 0.01 0.01 0.02 0.02 0.02 0.01 0.00 0.01 0.01 0.01 0.01 0.01 0.01 0.02 0.02 0.02 0.02 0.02 0.03 0.04 0.05 0.06 0.06 0.05 0.06 0.07 0.08 0.07 0.08 0.10 0.10 0.10 0.08 0.08 0.08 0.08 0.07 0.06 0.06 0.08
0.01 0.00 0.00 0.01 0.01 0.02 0.03 0.02 0.01 0.00 0.00 0.01 0.01 0.01 0.01 0.01 0.02 0.02 0.02 0.02 0.02 0.03 0.04 0.05 0.05 0.05 0.07 0.09 0.09 0.10 0.08 0.07 0.08 0.09 0.09 0.07 0.06 0.07 0.06 0.06 0.06 0.06 0.08
0.01 0.01 0.01 0.01 0.02 0.02 0.03 0.03 0.01 0.00 0.01 0.00 0.01 0.01 0.01 0.02 0.02 0.02 0.02 0.02 0.03 0.03 0.04 0.05 0.07 0.08 0.09 0.11 0.08 0.08 0.07 0.07 0.07 0.07 0.07 0.05 0.05 0.05 0.04 0.04 0.04 0.04 0.05
0.01 0.01 0.01 0.01 0.02 0.02 0.03 0.04 0.02 0.01 0.01 0.01 0.00 0.01 0.02 0.02 0.02 0.02 0.03 0.04 0.04 0.04 0.05 0.07 0.07 0.08 0.09 0.08 0.06 0.06 0.05 0.05 0.04 0.04 0.04 0.03 0.02 0.03 0.03 0.04 0.03 0.03 0.02
0.04 0.05 0.03 0.03 0.04 0.05 0.05 0.06 0.04 0.02 0.01 0.01 0.01 0.01 0.01 0.02 0.03 0.04 0.05 0.06 0.06 0.07 0.08 0.09 0.09 0.09 0.09 0.09 0.06 0.05 0.04 0.04 0.04 0.04 0.05 0.03 0.03 0.03 0.02 0.03 0.02 0.02 0.02
0.04 0.06 0.08 0.07 0.09 0.12 0.11 0.12 0.12 0.07 0.03 0.02 0.01 0.01 0.02 0.03 0.05 0.06 0.06 0.07 0.07 0.08 0.07 0.07 0.08 0.09 0.10 0.11 0.07 0.05 0.05 0.05 0.04 0.04 0.04 0.04 0.04 0.03 0.02 0.02 0.02 0.01 0.02
0.06 0.05 0.06 0.08 0.07 0.13 0.18 0.14 0.15 0.10 0.03 0.02 0.02 0.03 0.03 0.02 0.04 0.07 0.07 0.07 0.06 0.06 0.07 0.06 0.06 0.06 0.07 0.08 0.06 0.05 0.05 0.04 0.04 0.04 0.04 0.05 0.04 0.04 0.03 0.03 0.02 0.01 0.01
0.10 0.08 0.05 0.06 0.05 0.07 0.12 0.15 0.09 0.06 0.03 0.02 0.02 0.03 0.03 0.03 0.05 0.06 0.06 0.06 0.07 0.07 0.06 0.05 0.04 0.05 0.06 0.06 0.05 0.05 0.04 0.05 0.05 0.04 0.04 0.05 0.05 0.06 0.05 0.04 0.03 0.02 0.01
0.09 0.06 0.05 0.05 0.04 0.04 0.06 0.07 0.07 0.05 0.03 0.02 0.02 0.01 0.02 0.02 0.03 0.03 0.05 0.06 0.07 0.08 0.08 0.07 0.06 0.06 0.06 0.06 0.05 0.05 0.05 0.06 0.06 0.07 0.06 0.06 0.06 0.05 0.05 0.05 0.04 0.03 0.03
0.04 0.04 0.04 0.04 0.03 0.03 0.03 0.04 0.04 0.04 0.03 0.02 0.01 0.01 0.02 0.02 0.02 0.02 0.03 0.04 0.05 0.06 0.06 0.06 0.07 0.07 0.07 0.06 0.05 0.04 0.04 0.04 0.04 0.04 0.04 0.05 0.05 0.05 0.05 0.04 0.04 0.04 0.04
0.03 0.03 0.03 0.03 0.04 0.03 0.03 0.04 0.04 0.04 0.04 0.02 0.01 0.02 0.02 0.02 0.02 0.02 0.02 0.03 0.04 0.05 0.05 0.05 0.05 0.05 0.05 0.05 0.05 0.05 0.03 0.03 0.03 0.03 0.03 0.03 0.03 0.03 0.03 0.03 0.03 0.03 0.03
MSLP
1014.15 1013.87 1013.62 1013.38 1013.17 1013.01 1012.91 1012.91 1013.00 1013.20 1013.49 1013.85 1014.26 1014.69 1015.11 1015.49 1015.83 1016.11 1016.35 1016.54 1016.68 1016.77 1016.82 1016.83 1016.80 1016.75 1016.68 1016.61 1016.57 1016.55 1016.58 1016.64 1016.73 1016.82 1016.88 1016.91 1016.87 1016.78 1016.63 1016.44 1016.26 1016.11 1016.04
1014.22 1013.97 1013.74 1013.51 1013.31 1013.14 1013.02 1012.97 1013.02 1013.17 1013.40 1013.71 1014.06 1014.43 1014.79 1015.14 1015.45 1015.72 1015.96 1016.17 1016.35 1016.50 1016.61 1016.68 1016.71 1016.70 1016.67 1016.63 1016.60 1016.59 1016.63 1016.72 1016.83 1016.95 1017.05 1017.10 1017.07 1016.95 1016.75 1016.47 1016.17 1015.88 1015.65
1014.20 1013.98 1013.78 1013.57 1013.38 1013.21 1013.08 1013.01 1013.03 1013.12 1013.30 1013.55 1013.84 1014.14 1014.44 1014.73 1014.99 1015.24 1015.47 1015.68 1015.89 1016.08 1016.25 1016.39 1016.48 1016.53 1016.55 1016.54 1016.54 1016.55 1016.61 1016.72 1016.86 1017.02 1017.16 1017.24 1017.24 1017.13 1016.90 1016.57 1016.17 1015.75 1015.38
1014.18 1013.99 1013.80 1013.61 1013.42 1013.25 1013.11 1013.02 1013.00 1013.06 1013.19 1013.37 1013.59 1013.83 1014.06 1014.27 1014.48 1014.68 1014.88 1015.09 1015.31 1015.53 1015.75 1015.94 1016.10 1016.21 1016.28 1016.33 1016.36 1016.41 1016.49 1016.63 1016.80 1017.01 1017.19 1017.33 1017.37 1017.29 1017.06 1016.71 1016.25 1015.74 1015.23
1014.26 1014.06 1013.86 1013.67 1013.47 1013.29 1013.13 1013.01 1012.96 1012.97 1013.04 1013.17 1013.32 1013.48 1013.64 1013.78 1013.92 1014.06 1014.22 1014.40 1014.62 1014.86 1015.11 1015.35 1015.57 1015.74 1015.87 1015.97 1016.05 1016.14 1016.26 1016.43 1016.64 1016.89 1017.13 1017.33 1017.43 1017.40 1017.21 1016.86 1016.38 1015.81 1015.20
1014.47 1014.24 1014.02 1013.80 1013.58 1013.36 1013.16 1013.01 1012.90 1012.86 1012.88 1012.93 1013.02 1013.10 1013.19 1013.26 1013.33 1013.41 1013.51 1013.66 1013.85 1014.09 1014.35 1014.63 1014.89 1015.12 1015.31 1015.46 1015.59 1015.72 1015.88 1016.09 1016.34 1016.63 1016.93 1017.19 1017.37 1017.41 1017.28 1016.98 1016.51 1015.92 1015.25
1014.81 1014.55 1014.29 1014.02 1013.75 1013.48 1013.23 1013.01 1012.85 1012.74 1012.69 1012.68 1012.69 1012.71 1012.73 1012.73 1012.73 1012.74 1012.79 1012.88 1013.04 1013.26 1013.52 1013.81 1014.10 1014.36 1014.60 1014.79 1014.97 1015.14 1015.34 1015.58 1015.87 1016.20 1016.55 1016.88 1017.13 1017.25 1017.21 1016.98 1016.57 1015.99 1015.31
1015.25 1014.94 1014.63 1014.31 1013.97 1013.63 1013.31 1013.03 1012.79 1012.62 1012.49 1012.42 1012.36 1012.32 1012.27 1012.21 1012.15 1012.10 1012.08 1012.12 1012.23 1012.40 1012.64 1012.91 1013.21 1013.49 1013.75 1013.98 1014.19 1014.39 1014.61 1014.88 1015.19 1015.56 1015.95 1016.33 1016.66 1016.87 1016.93 1016.80 1016.47 1015.97 1015.32
1015.69 1015.35 1014.99 1014.61 1014.21 1013.80 1013.41 1013.05 1012.74 1012.49 1012.30 1012.15 1012.04 1011.94 1011.83 1011.72 1011.60 1011.50 1011.42 1011.40 1011.45 1011.57 1011.76 1012.00 1012.27 1012.54 1012.80 1013.04 1013.26 1013.48 1013.72 1013.99 1014.32 1014.70 1015.12 1015.54 1015.93 1016.23 1016.39 1016.38 1016.16 1015.76 1015.19
1016.08 1015.70 1015.31 1014.88 1014.42 1013.96 1013.50 1013.07 1012.70 1012.38 1012.12 1011.91 1011.75 1011.59 1011.44 1011.28 1011.12 1010.96 1010.83 1010.75 1010.73 1010.78 1010.91 1011.09 1011.32 1011.56 1011.80 1012.02 1012.24 1012.45 1012.68 1012.95 1013.27 1013.64 1014.07 1014.52 1014.95 1015.33 1015.58 1015.68 1015.60 1015.33 1014.88
1016.34 1015.96 1015.54 1015.08 1014.59 1014.09 1013.58 1013.10 1012.67 1012.29 1011.98 1011.73 1011.51 1011.31 1011.12 1010.92 1010.72 1010.52 1010.33 1010.19 1010.10 1010.08 1010.13 1010.24 1010.41 1010.59 1010.79 1010.99 1011.17 1011.36 1011.57 1011.81 1012.10 1012.45 1012.86 1013.31 1013.76 1014.18 1014.52 1014.73 1014.78 1014.66 1014.36
1016.48 1016.10 1015.68 1015.21 1014.71 1014.19 1013.66 1013.14 1012.68 1012.26 1011.91 1011.61 1011.35 1011.11 1010.88 1010.65 1010.40 1010.15 1009.92 1009.71 1009.56 1009.46 1009.43 1009.47 1009.56 1009.69 1009.84 1009.99 1010.13 1010.29 1010.46 1010.65 1010.90 1011.21 1011.58 1012.00 1012.45 1012.89 1013.28 1013.58 1013.75 1013.77 1013.63
1016.53 1016.16 1015.75 1015.30 1014.81 1014.28 1013.75 1013.23 1012.74 1012.30 1011.91 1011.57 1011.27 1010.99 1010.72 1010.44 1010.15 1009.86 1009.57 1009.31 1009.09 1008.92 1008.82 1008.79 1008.81 1008.88 1008.97 1009.07 1009.18 1009.29 1009.42 1009.57 1009.77 1010.02 1010.33 1010.70 1011.12 1011.55 1011.96 1012.32 1012.58 1012.73 1012.74
1016.54 1016.20 1015.81 1015.38 1014.91 1014.41 1013.88 1013.37 1012.87 1012.41 1011.99 1011.62 1011.27 1010.94 1010.62 1010.29 1009.95 1009.60 1009.26 1008.95 1008.67 1008.45 1008.29 1008.19 1008.16 1008.17 1008.22 1008.28 1008.35 1008.43 1008.52 1008.62 1008.77 1008.96 1009.20 1009.51 1009.87 1010.26 1010.66 1011.04 1011.37 1011.61 1011.76
1016.57 1016.25 1015.90 1015.50 1015.05 1014.57 1014.07 1013.57 1013.07 1012.59 1012.14 1011.72 1011.31 1010.92 1010.54 1010.14 1009.75 1009.35 1008.96 1008.60 1008.28 1008.01 1007.81 1007.68 1007.60 1007.59 1007.60 1007.64 1007.68 1007.73 1007.79 1007.85 1007.95 1008.08 1008.26 1008.49 1008.78 1009.12 1009.48 1009.85 1010.20 1010.50 1010.73
1016.65 1016.36 1016.03 1015.66 1015.24 1014.79 1014.31 1013.81 1013.31 1012.80 1012.31 1011.84 1011.37 1010.91 1010.45 1009.99 1009.53 1009.08 1008.65 1008.25 1007.90 1007.61 1007.39 1007.24 1007.15 1007.11 1007.11 1007.13 1007.16 1007.20 1007.23 1007.27 1007.32 1007.40 1007.51 1007.68 1007.89 1008.16 1008.47 1008.80 1009.13 1009.45 1009.73
1016.79 1016.52 1016.21 1015.86 1015.46 1015.02 1014.55 1014.05 1013.54 1013.00 1012.47 1011.93 1011.39 1010.85 1010.31 1009.79 1009.27 1008.78 1008.32 1007.91 1007.55 1007.26 1007.03 1006.89 1006.80 1006.76 1006.76 1006.77 1006.80 1006.82 1006.84 1006.85 1006.87 1006.90 1006.96 1007.06 1007.21 1007.40 1007.63 1007.90 1008.19 1008.48 1008.76
1016.97 1016.71 1016.41 1016.06 1015.67 1015.24 1014.76 1014.25 1013.71 1013.14 1012.55 1011.95 1011.34 1010.73 1010.14 1009.55 1009.00 1008.48 1008.02 1007.61 1007.26 1006.99 1006.79 1006.66 1006.58 1006.55 1006.55 1006.56 1006.58 1006.59 1006.58 1006.57 1006.56 1006.55 1006.57 1006.60 1006.68 1006.79 1006.95 1007.14 1007.36 1007.59 1007.82
1017.13 1016.87 1016.57 1016.22 1015.83 1015.39 1014.90 1014.37 1013.80 1013.19 1012.56 1011.90 1011.24 1010.58 1009.94 1009.33 1008.76 1008.24 1007.79 1007.41 1007.11 1006.87 1006.71 1006.60 1006.54 1006.52 1006.51 1006.51 1006.50 1006.48 1006.45 1006.40 1006.35 1006.30 1006.26 1006.24 1006.24 1006.28 1006.35 1006.45 1006.58 1006.73 1006.89
1017.24 1016.98 1016.67 1016.31 1015.91 1015.45 1014.95 1014.40 1013.81 1013.17 1012.50 1011.81 1011.12 1010.44 1009.78 1009.17 1008.62 1008.14 1007.74 1007.41 1007.16 1006.97 1006.85 1006.77 1006.73 1006.69 1006.66 1006.63 1006.57 1006.50 1006.42 1006.31 1006.21 1006.10 1006.00 1005.91 1005.84 1005.80 1005.78 1005.79 1005.81 1005.86 1005.92
1017.27 1017.01 1016.69 1016.32 1015.91 1015.44 1014.93 1014.37 1013.76 1013.11 1012.43 1011.74 1011.05 1010.38 1009.75 1009.18 1008.67 1008.25 1007.91 1007.66 1007.47 1007.34 1007.26 1007.20 1007.15 1007.10 1007.03 1006.93 1006.81 1006.66 1006.49 1006.31 1006.12 1005.94 1005.76 1005.60 1005.45 1005.32 1005.20 1005.10 1005.02 1004.95 1004.90
1017.24 1016.97 1016.65 1016.28 1015.86 1015.39 1014.88 1014.32 1013.72 1013.09 1012.43 1011.77 1011.12 1010.49 1009.92 1009.41 1008.98 1008.64 1008.38 1008.20 1008.08 1008.00 1007.95 1007.90 1007.84 1007.74 1007.60 1007.42 1007.21 1006.96 1006.69 1006.40 1006.12 1005.84 1005.57 1005.31 1005.07 1004.84 1004.62 1004.42 1004.22 1004.04 1003.88
1017.15 1016.89 1016.57 1016.20 1015.79 1015.34 1014.85 1014.33 1013.76 1013.18 1012.57 1011.96 1011.38 1010.82 1010.33 1009.90 1009.56 1009.31 1009.13 1009.02 1008.96 1008.93 1008.89 1008.83 1008.73 1008.58 1008.36 1008.09 1007.77 1007.41 1007.02 1006.62 1006.23 1005.84 1005.47 1005.11 1004.77 1004.44 1004.11 1003.79 1003.48 1003.19 1002.92
1017.03 1016.78 1016.48 1016.14 1015.76 1015.35 1014.90 1014.43 1013.93 1013.41 1012.88 1012.36 1011.85 1011.39 1010.99 1010.65 1010.40 1010.22 1010.12 1010.07 1010.05 1010.03 1010.00 1009.92 1009.77 1009.56 1009.26 1008.90 1008.47 1008.00 1007.51 1007.00 1006.50 1006.01 1005.53 1005.08 1004.63 1004.19 1003.76 1003.34 1002.92 1002.52 1002.15
1016.90 1016.67 1016.40 1016.10 1015.77 1015.42 1015.04 1014.65 1014.23 1013.80 1013.36 1012.93 1012.52 1012.15 1011.84 1011.58 1011.40 1011.29 1011.23 1011.21 1011.21 1011.20 1011.15 1011.04 1010.85 1010.58 1010.22 1009.78 1009.27 1008.72 1008.14 1007.55 1006.96 1006.39 1005.83 1005.29 1004.76 1004.23 1003.71 1003.19 1002.68 1002.19 1001.74
1016.74 1016.54 1016.32 1016.07 1015.81 1015.54 1015.25 1014.94 1014.62 1014.29 1013.95 1013.61 1013.30 1013.01 1012.76 1012.57 1012.44 1012.36 1012.33 1012.32 1012.32 1012.29 1012.22 1012.08 1011.86 1011.55 1011.15 1010.66 1010.12 1009.53 1008.91 1008.28 1007.65 1007.03 1006.43 1005.83 1005.24 1004.65 1004.06 1003.46 1002.88 1002.32 1001.80
Thickness
5832 5829 5825 5821 5815 5810 5805 5801 5797 5795 5792 5789 5786 5784 5783 5784 5784 5784 5783 5781 5779 5778 5777 5776 5775 5774 5773 5771 5771 5769 5768 5767 5769 5766 5765 5768 5771 5770 5770 5769 5768 5767 5765
5829 5827 5824 5820 5815 5809 5805 5801 5798 5795 5793 5791 5789 5788 5786 5785 5785 5785 5783 5782 5780 5778 5778 5776 5775 5774 5773 5771 5770 5769 5766 5766 5768 5763 5758 5755 5758 5764 5769 5767 5766 5765 5765
5829 5825 5822 5819 5816 5810 5806 5803 5799 5797 5794 5793 5791 5789 5786 5784 5783 5782 5782 5782 5781 5779 5778 5777 5776 5775 5774 5771 5770 5769 5766 5763 5765 5765 5758 5750 5747 5753 5761 5765 5764 5764 5763
5836 5830 5825 5820 5818 5814 5811 5806 5802 5798 5796 5794 5791 5787 5783 5780 5781 5782 5782 5782 5781 5780 5778 5777 5776 5774 5773 5772 5770 5770 5768 5764 5761 5763 5764 5762 5758 5750 5749 5756 5760 5761 5761
5839 5833 5829 5825 5822 5819 5814 5809 5804 5800 5797 5794 5791 5788 5785 5784 5784 5784 5783 5781 5781 5780 5779 5777 5776 5774 5772 5771 5770 5769 5767 5765 5762 5761 5761 5760 5759 5758 5750 5745 5750 5754 5757
5841 5836 5832 5828 5823 5820 5816 5811 5805 5800 5798 5795 5792 5788 5785 5784 5782 5781 5780 5779 5779 5778 5778 5777 5775 5773 5771 5771 5769 5768 5766 5764 5763 5761 5760 5758 5755 5753 5752 5747 5746 5747 5751
5840 5833 5827 5824 5820 5818 5814 5811 5805 5800 5798 5795 5792 5789 5786 5784 5781 5780 5779 5778 5777 5777 5777 5777 5775 5773 5771 5770 5769 5767 5765 5763 5761 5760 5759 5759 5759 5758 5755 5750 5746 5746 5748
5838 5832 5827 5823 5819 5817 5814 5810 5804 5799 5797 5794 5791 5790 5787 5784 5782 5781 5780 5779 5779 5779 5779 5777 5775 5773 5771 5770 5768 5766 5764 5763 5761 5761 5759 5758 5758 5758 5756 5751 5746 5740 5742
5836 5830 5827 5822 5817 5814 5812 5809 5804 5799 5797 5794 5791 5788 5786 5784 5782 5782 5780 5780 5780 5779 5778 5777 5774 5772 5770 5768 5766 5764 5763 5762 5760 5759 5758 5757 5757 5757 5756 5754 5749 5740 5733
5833 5829 5825 5821 5817 5814 5810 5807 5803 5799 5796 5793 5790 5788 5785 5784 5782 5780 5779 5778 5778 5778 5777 5774 5772 5770 5768 5766 5764 5762 5761 5760 5759 5758 5756 5755 5755 5755 5754 5752 5749 5745 5738
5828 5826 5823 5820 5816 5812 5807 5802 5799 5795 5792 5791 5789 5786 5784 5782 5780 5778 5777 5776 5775 5775 5773 5772 5770 5768 5766 5764 5762 5760 5760 5757 5756 5756 5754 5753 5752 5751 5749 5748 5745 5743 5739
5823 5822 5818 5814 5810 5806 5803 5798 5796 5793 5790 5788 5786 5783 5782 5780 5777 5776 5775 5774 5772 5772 5770 5769 5767 5766 5765 5763 5761 5758 5757 5755 5753 5752 5751 5749 5749 5747 5745 5743 5741 5739 5738
5818 5816 5812 5807 5804 5800 5798 5794 5792 5790 5788 5785 5781 5779 5777 5776 5773 5772 5772 5771 5769 5768 5767 5766 5764 5763 5762 5760 5759 5757 5755 5754 5752 5750 5747 5746 5744 5741 5740 5738 5736 5735 5735
5810 5808 5804 5800 5798 5796 5794 5790 5787 5786 5785 5781 5777 5773 5772 5771 5770 5769 5768 5767 5766 5764 5763 5762 5761 5759 5758 5758 5756 5754 5752 5751 5749 5747 5745 5743 5740 5738 5735 5734 5732 5731 5728
5802 5800 5796 5793 5791 5789 5788 5786 5784 5782 5780 5776 5772 5769 5768 5767 5766 5764 5763 5763 5762 5761 5759 5757 5756 5755 5754 5754 5752 5750 5748 5745 5742 5742 5742 5740 5738 5735 5732 5731 5728 5725 5722
5793 5793 5791 5787 5784 5782 5780 5779 5777 5776 5774 5770 5768 5767 5765 5763 5761 5760 5759 5758 5757 5756 5755 5753 5751 5750 5750 5749 5748 5745 5743 5741 5739 5737 5736 5735 5733 5730 5728 5725 5723 5721 5717
5788 5786 5785 5782 5778 5776 5775 5772 5771 5770 5767 5765 5763 5762 5760 5758 5756 5755 5753 5751 5750 5749 5747 5746 5745 5743 5742 5742 5741 5739 5738 5736 5735 5732 5731 5730 5729 5725 5722 5719 5717 5715 5714
5782 5781 5780 5777 5775 5774 5771 5768 5766 5763 5761 5758 5757 5757 5755 5753 5752 5749 5747 5745 5744 5743 5741 5740 5739 5737 5736 5734 5733 5733 5732 5730 5729 5727 5725 5723 5721 5720 5715 5712 5710 5709 5707
5777 5776 5775 5773 5770 5767 5764 5761 5758 5755 5753 5751 5750 5750 5748 5746 5744 5742 5740 5739 5737 5736 5735 5735 5733 5730 5728 5727 5726 5724 5724 5722 5721 5720 5719 5717 5714 5712 5709 5705 5702 5700 5699
5770 5767 5767 5764 5760 5758 5756 5751 5748 5746 5744 5744 5743 5743 5741 5739 5737 5735 5734 5734 5732 5730 5729 5728 5726 5724 5722 5720 5719 5717 5716 5714 5713 5712 5711 5710 5707 5704 5701 5698 5695 5691 5691
5759 5759 5757 5754 5751 5749 5747 5742 5739 5736 5737 5737 5736 5735 5734 5732 5731 5730 5728 5727 5725 5723 5721 5720 5719 5718 5716 5712 5710 5709 5708 5706 5704 5703 5702 5701 5699 5696 5693 5690 5687 5685 5683
5747 5748 5745 5742 5743 5741 5736 5732 5729 5729 5729 5728 5726 5726 5726 5726 5726 5723 5721 5719 5717 5715 5714 5712 5710 5710 5708 5706 5702 5701 5699 5697 5695 5694 5694 5692 5689 5686 5684 5681 5680 5678 5675
5736 5736 5735 5733 5732 5731 5729 5723 5722 5722 5720 5719 5718 5718 5718 5718 5717 5715 5713 5712 5710 5708 5707 5705 5703 5701 5700 5697 5694 5691 5690 5689 5686 5686 5684 5682 5680 5677 5676 5675 5672 5670 5667
5725 5725 5724 5722 5721 5722 5720 5718 5717 5715 5713 5710 5710 5710 5709 5708 5707 5706 5706 5704 5702 5700 5698 5696 5694 5693 5690 5688 5685 5682 5680 5678 5676 5675 5673 5671 5670 5669 5667 5666 5665 5664 5662
5717 5715 5713 5711 5710 5711 5710 5710 5708 5706 5704 5703 5703 5702 5701 5699 5697 5696 5694 5694 5692 5692 5689 5688 5686 5683 5681 5678 5675 5673 5672 5670 5667 5664 5663 5662 5661 5661 5659 5659 5658 5657 5656
5708 5706 5706 5703 5702 5702 5701 5700 5700 5698 5696 5695 5694 5694 5693 5691 5690 5687 5685 5682 5682 5681 5680 5678 5676 5674 5672 5669 5667 5664 5661 5659 5657 5655 5655 5653 5653 5652 5651 5649 5648 5647 5646